Year,Month,Day,Hour,Minute,Value (Times are PST for temperature in C)
2014,06,23,00,00,14.10
2014,06,23,00,01,14.10
2014,06,23,00,02,14.10
2014,06,23,00,03,14.10
2014,06,23,00,04,14.10
2014,06,23,00,05,14.10
2014,06,23,00,06,14.00
2014,06,23,00,07,14.00
2014,06,23,00,08,14.00
2014,06,23,00,09,14.00
2014,06,23,00,10,13.90
2014,06,23,00,11,13.90
2014,06,23,00,12,13.90
2014,06,23,00,13,13.90
2014,06,23,00,14,13.90
2014,06,23,00,15,13.90
2014,06,23,00,16,13.90
2014,06,23,00,17,13.90
2014,06,23,00,18,13.90
2014,06,23,00,19,13.90
2014,06,23,00,20,13.90
2014,06,23,00,21,13.90
2014,06,23,00,22,13.90
2014,06,23,00,23,13.90
2014,06,23,00,24,13.80
2014,06,23,00,25,13.90
2014,06,23,00,26,13.90
2014,06,23,00,27,13.90
2014,06,23,00,28,13.90
2014,06,23,00,29,13.90
2014,06,23,00,30,13.90
2014,06,23,00,31,13.80
2014,06,23,00,32,13.80
2014,06,23,00,33,13.80
2014,06,23,00,34,13.80
2014,06,23,00,35,13.80
2014,06,23,00,36,13.80
2014,06,23,00,37,13.80
2014,06,23,00,38,13.80
2014,06,23,00,39,13.80
2014,06,23,00,40,13.80
2014,06,23,00,41,13.70
2014,06,23,00,42,13.70
2014,06,23,00,43,13.70
2014,06,23,00,44,13.70
2014,06,23,00,45,13.70
2014,06,23,00,46,13.70
2014,06,23,00,47,13.70
2014,06,23,00,48,13.70
2014,06,23,00,49,13.70
2014,06,23,00,50,13.70
2014,06,23,00,51,13.70
2014,06,23,00,52,13.70
2014,06,23,00,53,13.70
2014,06,23,00,54,13.70
2014,06,23,00,55,13.70
2014,06,23,00,56,13.70
2014,06,23,00,57,13.70
2014,06,23,00,58,13.70
2014,06,23,00,59,13.70
2014,06,23,01,00,13.60
2014,06,23,01,01,13.60
2014,06,23,01,02,13.60
2014,06,23,01,03,13.60
2014,06,23,01,04,13.60
2014,06,23,01,05,13.50
2014,06,23,01,06,13.50
2014,06,23,01,07,13.50
2014,06,23,01,08,13.50
2014,06,23,01,09,13.50
2014,06,23,01,10,13.50
2014,06,23,01,11,13.40
2014,06,23,01,12,13.40
2014,06,23,01,13,13.40
2014,06,23,01,14,13.40
2014,06,23,01,15,13.40
2014,06,23,01,16,13.40
2014,06,23,01,17,13.40
2014,06,23,01,18,13.40
2014,06,23,01,19,13.40
2014,06,23,01,20,13.40
2014,06,23,01,21,13.40
2014,06,23,01,22,13.40
2014,06,23,01,23,13.40
2014,06,23,01,24,13.40
2014,06,23,01,25,13.40
2014,06,23,01,26,13.40
2014,06,23,01,27,13.40
2014,06,23,01,28,13.30
2014,06,23,01,29,13.40
2014,06,23,01,30,13.40
2014,06,23,01,31,13.40
2014,06,23,01,32,13.40
2014,06,23,01,33,13.40
2014,06,23,01,34,13.40
2014,06,23,01,35,13.40
2014,06,23,01,36,13.40
2014,06,23,01,37,13.40
2014,06,23,01,38,13.40
2014,06,23,01,39,13.40
2014,06,23,01,40,13.40
2014,06,23,01,41,13.40
2014,06,23,01,42,13.30
2014,06,23,01,43,13.30
2014,06,23,01,44,13.30
2014,06,23,01,45,13.30
2014,06,23,01,46,13.30
2014,06,23,01,47,13.30
2014,06,23,01,48,13.30
2014,06,23,01,49,13.30
2014,06,23,01,50,13.30
2014,06,23,01,51,13.30
2014,06,23,01,52,13.30
2014,06,23,01,53,13.30
2014,06,23,01,54,13.30
2014,06,23,01,55,13.30
2014,06,23,01,56,13.20
2014,06,23,01,57,13.20
2014,06,23,01,58,13.20
2014,06,23,01,59,13.20
2014,06,23,02,00,13.20
2014,06,23,02,01,13.20
2014,06,23,02,02,13.20
2014,06,23,02,03,13.20
2014,06,23,02,04,13.20
2014,06,23,02,05,13.20
2014,06,23,02,06,13.20
2014,06,23,02,07,13.10
2014,06,23,02,08,13.10
2014,06,23,02,09,13.10
2014,06,23,02,10,13.10
2014,06,23,02,11,13.10
2014,06,23,02,12,13.10
2014,06,23,02,13,13.10
2014,06,23,02,14,13.10
2014,06,23,02,15,13.10
2014,06,23,02,16,13.10
2014,06,23,02,17,13.10
2014,06,23,02,18,13.10
2014,06,23,02,19,13.00
2014,06,23,02,20,13.00
2014,06,23,02,21,13.00
2014,06,23,02,22,13.00
2014,06,23,02,23,13.00
2014,06,23,02,24,12.90
2014,06,23,02,25,12.90
2014,06,23,02,26,12.90
2014,06,23,02,27,12.90
2014,06,23,02,28,12.90
2014,06,23,02,29,12.90
2014,06,23,02,30,12.90
2014,06,23,02,31,12.90
2014,06,23,02,32,12.90
2014,06,23,02,33,12.90
2014,06,23,02,34,12.80
2014,06,23,02,35,12.80
2014,06,23,02,36,12.80
2014,06,23,02,37,12.80
2014,06,23,02,38,12.80
2014,06,23,02,39,12.80
2014,06,23,02,40,12.80
2014,06,23,02,41,12.80
2014,06,23,02,42,12.80
2014,06,23,02,43,12.80
2014,06,23,02,44,12.70
2014,06,23,02,45,12.70
2014,06,23,02,46,12.70
2014,06,23,02,47,12.70
2014,06,23,02,48,12.70
2014,06,23,02,49,12.70
2014,06,23,02,50,12.70
2014,06,23,02,51,12.70
2014,06,23,02,52,12.70
2014,06,23,02,53,12.70
2014,06,23,02,54,12.70
2014,06,23,02,55,12.70
2014,06,23,02,56,12.70
2014,06,23,02,57,12.70
2014,06,23,02,58,12.70
2014,06,23,02,59,12.70
2014,06,23,03,00,12.70
2014,06,23,03,01,12.70
2014,06,23,03,02,12.70
2014,06,23,03,03,12.60
2014,06,23,03,04,12.60
2014,06,23,03,05,12.60
2014,06,23,03,06,12.60
2014,06,23,03,07,12.60
2014,06,23,03,08,12.60
2014,06,23,03,09,12.60
2014,06,23,03,10,12.60
2014,06,23,03,11,12.50
2014,06,23,03,12,12.50
2014,06,23,03,13,12.50
2014,06,23,03,14,12.50
2014,06,23,03,15,12.40
2014,06,23,03,16,12.40
2014,06,23,03,17,12.40
2014,06,23,03,18,12.40
2014,06,23,03,19,12.40
2014,06,23,03,20,12.40
2014,06,23,03,21,12.40
2014,06,23,03,22,12.40
2014,06,23,03,23,12.50
2014,06,23,03,24,12.50
2014,06,23,03,25,12.50
2014,06,23,03,26,12.50
2014,06,23,03,27,12.50
2014,06,23,03,28,12.50
2014,06,23,03,29,12.50
2014,06,23,03,30,12.50
2014,06,23,03,31,12.50
2014,06,23,03,32,12.50
2014,06,23,03,33,12.50
2014,06,23,03,34,12.50
2014,06,23,03,35,12.50
2014,06,23,03,36,12.50
2014,06,23,03,37,12.50
2014,06,23,03,38,12.40
2014,06,23,03,39,12.40
2014,06,23,03,40,12.40
2014,06,23,03,41,12.40
2014,06,23,03,42,12.40
2014,06,23,03,43,12.40
2014,06,23,03,44,12.40
2014,06,23,03,45,12.30
2014,06,23,03,46,12.30
2014,06,23,03,47,12.30
2014,06,23,03,48,12.30
2014,06,23,03,49,12.30
2014,06,23,03,50,12.30
2014,06,23,03,51,12.30
2014,06,23,03,52,12.30
2014,06,23,03,53,12.30
2014,06,23,03,54,12.30
2014,06,23,03,55,12.30
2014,06,23,03,56,12.30
2014,06,23,03,57,12.30
2014,06,23,03,58,12.20
2014,06,23,03,59,12.20
2014,06,23,04,00,12.20
2014,06,23,04,01,12.20
2014,06,23,04,02,12.20
2014,06,23,04,03,12.20
2014,06,23,04,04,12.20
2014,06,23,04,05,12.10
2014,06,23,04,06,12.10
2014,06,23,04,07,12.10
2014,06,23,04,08,12.10
2014,06,23,04,09,12.10
2014,06,23,04,10,12.10
2014,06,23,04,11,12.10
2014,06,23,04,12,12.10
2014,06,23,04,13,12.10
2014,06,23,04,14,12.00
2014,06,23,04,15,12.00
2014,06,23,04,16,12.00
2014,06,23,04,17,12.00
2014,06,23,04,18,12.00
2014,06,23,04,19,12.00
2014,06,23,04,20,12.00
2014,06,23,04,21,12.00
2014,06,23,04,22,11.90
2014,06,23,04,23,11.90
2014,06,23,04,24,11.90
2014,06,23,04,25,11.90
2014,06,23,04,26,11.90
2014,06,23,04,27,11.90
2014,06,23,04,28,11.90
2014,06,23,04,29,11.80
2014,06,23,04,30,11.80
2014,06,23,04,31,11.80
2014,06,23,04,32,11.80
2014,06,23,04,33,11.80
2014,06,23,04,34,11.80
2014,06,23,04,35,11.80
2014,06,23,04,36,11.80
2014,06,23,04,37,11.80
2014,06,23,04,38,11.80
2014,06,23,04,39,11.80
2014,06,23,04,40,11.80
2014,06,23,04,41,11.70
2014,06,23,04,42,11.70
2014,06,23,04,43,11.70
2014,06,23,04,44,11.70
2014,06,23,04,45,11.70
2014,06,23,04,46,11.70
2014,06,23,04,47,11.70
2014,06,23,04,48,11.70
2014,06,23,04,49,11.70
2014,06,23,04,50,11.70
2014,06,23,04,51,11.70
2014,06,23,04,52,11.70
2014,06,23,04,53,11.70
2014,06,23,04,54,11.70
2014,06,23,04,55,11.70
2014,06,23,04,56,11.70
2014,06,23,04,57,11.80
2014,06,23,04,58,11.80
2014,06,23,04,59,11.80
2014,06,23,05,00,11.80
2014,06,23,05,01,11.80
2014,06,23,05,02,11.80
2014,06,23,05,03,11.80
2014,06,23,05,04,11.90
2014,06,23,05,05,11.90
2014,06,23,05,06,11.90
2014,06,23,05,07,11.90
2014,06,23,05,08,11.90
2014,06,23,05,09,11.90
2014,06,23,05,10,11.90
2014,06,23,05,11,12.00
2014,06,23,05,12,12.00
2014,06,23,05,13,12.00
2014,06,23,05,14,12.10
2014,06,23,05,15,12.10
2014,06,23,05,16,12.10
2014,06,23,05,17,12.10
2014,06,23,05,18,12.10
2014,06,23,05,19,12.20
2014,06,23,05,20,12.20
2014,06,23,05,21,12.20
2014,06,23,05,22,12.20
2014,06,23,05,23,12.30
2014,06,23,05,24,12.30
2014,06,23,05,25,12.30
2014,06,23,05,26,12.30
2014,06,23,05,27,12.40
2014,06,23,05,28,12.40
2014,06,23,05,29,12.40
2014,06,23,05,30,12.40
2014,06,23,05,31,12.50
2014,06,23,05,32,12.50
2014,06,23,05,33,12.50
2014,06,23,05,34,12.60
2014,06,23,05,35,12.60
2014,06,23,05,36,12.60
2014,06,23,05,37,12.70
2014,06,23,05,38,12.70
2014,06,23,05,39,12.70
2014,06,23,05,40,12.80
2014,06,23,05,41,12.80
2014,06,23,05,42,12.80
2014,06,23,05,43,12.80
2014,06,23,05,44,12.90
2014,06,23,05,45,12.90
2014,06,23,05,46,13.00
2014,06,23,05,47,13.00
2014,06,23,05,48,13.10
2014,06,23,05,49,13.10
2014,06,23,05,50,13.10
2014,06,23,05,51,13.10
2014,06,23,05,52,13.20
2014,06,23,05,53,13.20
2014,06,23,05,54,13.20
2014,06,23,05,55,13.20
2014,06,23,05,56,13.30
2014,06,23,05,57,13.30
2014,06,23,05,58,13.30
2014,06,23,05,59,13.40
2014,06,23,06,00,13.40
2014,06,23,06,01,13.50
2014,06,23,06,02,13.50
2014,06,23,06,03,13.50
2014,06,23,06,04,13.60
2014,06,23,06,05,13.60
2014,06,23,06,06,13.70
2014,06,23,06,07,13.70
2014,06,23,06,08,13.80
2014,06,23,06,09,13.90
2014,06,23,06,10,13.90
2014,06,23,06,11,14.00
2014,06,23,06,12,14.10
2014,06,23,06,13,14.10
2014,06,23,06,14,14.20
2014,06,23,06,15,14.20
2014,06,23,06,16,14.30
2014,06,23,06,17,14.30
2014,06,23,06,18,14.40
2014,06,23,06,19,14.40
2014,06,23,06,20,14.50
2014,06,23,06,21,14.50
2014,06,23,06,22,14.60
2014,06,23,06,23,14.60
2014,06,23,06,24,14.60
2014,06,23,06,25,14.70
2014,06,23,06,26,14.70
2014,06,23,06,27,14.70
2014,06,23,06,28,14.70
2014,06,23,06,29,14.80
2014,06,23,06,30,14.80
2014,06,23,06,31,14.80
2014,06,23,06,32,14.90
2014,06,23,06,33,14.90
2014,06,23,06,34,14.90
2014,06,23,06,35,15.00
2014,06,23,06,36,15.00
2014,06,23,06,37,15.00
2014,06,23,06,38,15.00
2014,06,23,06,39,15.00
2014,06,23,06,40,15.00
2014,06,23,06,41,15.00
2014,06,23,06,42,15.00
2014,06,23,06,43,15.00
2014,06,23,06,44,15.00
2014,06,23,06,45,15.00
2014,06,23,06,46,15.00
2014,06,23,06,47,15.00
2014,06,23,06,48,15.10
2014,06,23,06,49,15.10
2014,06,23,06,50,15.20
2014,06,23,06,51,15.20
2014,06,23,06,52,15.20
2014,06,23,06,53,15.30
2014,06,23,06,54,15.30
2014,06,23,06,55,15.30
2014,06,23,06,56,15.30
2014,06,23,06,57,15.30
2014,06,23,06,58,15.40
2014,06,23,06,59,15.40
2014,06,23,07,00,15.40
2014,06,23,07,01,15.40
2014,06,23,07,02,15.50
2014,06,23,07,03,15.50
2014,06,23,07,04,15.50
2014,06,23,07,05,15.60
2014,06,23,07,06,15.60
2014,06,23,07,07,15.60
2014,06,23,07,08,15.60
2014,06,23,07,09,15.70
2014,06,23,07,10,15.70
2014,06,23,07,11,15.70
2014,06,23,07,12,15.80
2014,06,23,07,13,15.80
2014,06,23,07,14,15.90
2014,06,23,07,15,16.00
2014,06,23,07,16,16.00
2014,06,23,07,17,16.10
2014,06,23,07,18,16.20
2014,06,23,07,19,16.30
2014,06,23,07,20,16.30
2014,06,23,07,21,16.40
2014,06,23,07,22,16.50
2014,06,23,07,23,16.50
2014,06,23,07,24,16.60
2014,06,23,07,25,16.70
2014,06,23,07,26,16.70
2014,06,23,07,27,16.80
2014,06,23,07,28,16.80
2014,06,23,07,29,16.90
2014,06,23,07,30,16.90
2014,06,23,07,31,16.90
2014,06,23,07,32,17.00
2014,06,23,07,33,17.00
2014,06,23,07,34,17.10
2014,06,23,07,35,17.10
2014,06,23,07,36,17.10
2014,06,23,07,37,17.20
2014,06,23,07,38,17.20
2014,06,23,07,39,17.20
2014,06,23,07,40,17.30
2014,06,23,07,41,17.30
2014,06,23,07,42,17.30
2014,06,23,07,43,17.30
2014,06,23,07,44,17.40
2014,06,23,07,45,17.40
2014,06,23,07,46,17.40
2014,06,23,07,47,17.40
2014,06,23,07,48,17.50
2014,06,23,07,49,17.50
2014,06,23,07,50,17.50
2014,06,23,07,51,17.60
2014,06,23,07,52,17.60
2014,06,23,07,53,17.60
2014,06,23,07,54,17.60
2014,06,23,07,55,17.60
2014,06,23,07,56,17.70
2014,06,23,07,57,17.70
2014,06,23,07,58,17.70
2014,06,23,07,59,17.70
2014,06,23,08,00,17.70
2014,06,23,08,01,17.70
2014,06,23,08,02,17.70
2014,06,23,08,03,17.70
2014,06,23,08,04,17.70
2014,06,23,08,05,17.80
2014,06,23,08,06,17.80
2014,06,23,08,07,17.80
2014,06,23,08,08,17.80
2014,06,23,08,09,17.80
2014,06,23,08,10,17.80
2014,06,23,08,11,17.80
2014,06,23,08,12,17.80
2014,06,23,08,13,17.80
2014,06,23,08,14,17.90
2014,06,23,08,15,17.90
2014,06,23,08,16,17.90
2014,06,23,08,17,18.00
2014,06,23,08,18,18.00
2014,06,23,08,19,18.10
2014,06,23,08,20,18.10
2014,06,23,08,21,18.10
2014,06,23,08,22,18.20
2014,06,23,08,23,18.20
2014,06,23,08,24,18.20
2014,06,23,08,25,18.20
2014,06,23,08,26,18.20
2014,06,23,08,27,18.20
2014,06,23,08,28,18.20
2014,06,23,08,29,18.20
2014,06,23,08,30,18.20
2014,06,23,08,31,18.20
2014,06,23,08,32,18.20
2014,06,23,08,33,18.20
2014,06,23,08,34,18.20
2014,06,23,08,35,18.30
2014,06,23,08,36,18.30
2014,06,23,08,37,18.40
2014,06,23,08,38,18.40
2014,06,23,08,39,18.40
2014,06,23,08,40,18.50
2014,06,23,08,41,18.50
2014,06,23,08,42,18.50
2014,06,23,08,43,18.50
2014,06,23,08,44,18.50
2014,06,23,08,45,18.50
2014,06,23,08,46,18.50
2014,06,23,08,47,18.50
2014,06,23,08,48,18.50
2014,06,23,08,49,18.40
2014,06,23,08,50,18.40
2014,06,23,08,51,18.40
2014,06,23,08,52,18.40
2014,06,23,08,53,18.40
2014,06,23,08,54,18.40
2014,06,23,08,55,18.40
2014,06,23,08,56,18.40
2014,06,23,08,57,18.40
2014,06,23,08,58,18.40
2014,06,23,08,59,18.40
2014,06,23,09,00,18.40
2014,06,23,09,01,18.40
2014,06,23,09,02,18.40
2014,06,23,09,03,18.50
2014,06,23,09,04,18.50
2014,06,23,09,05,18.50
2014,06,23,09,06,18.50
2014,06,23,09,07,18.50
2014,06,23,09,08,18.50
2014,06,23,09,09,18.50
2014,06,23,09,10,18.60
2014,06,23,09,11,18.60
2014,06,23,09,12,18.60
2014,06,23,09,13,18.60
2014,06,23,09,14,18.60
2014,06,23,09,15,18.60
2014,06,23,09,16,18.50
2014,06,23,09,17,18.50
2014,06,23,09,18,18.50
2014,06,23,09,19,18.50
2014,06,23,09,20,18.40
2014,06,23,09,21,18.40
2014,06,23,09,22,18.40
2014,06,23,09,23,18.40
2014,06,23,09,24,18.40
2014,06,23,09,25,18.40
2014,06,23,09,26,18.40
2014,06,23,09,27,18.40
2014,06,23,09,28,18.40
2014,06,23,09,29,18.40
2014,06,23,09,30,18.40
2014,06,23,09,31,18.40
2014,06,23,09,32,18.50
2014,06,23,09,33,18.50
2014,06,23,09,34,18.60
2014,06,23,09,35,18.60
2014,06,23,09,36,18.70
2014,06,23,09,37,18.70
2014,06,23,09,38,18.70
2014,06,23,09,39,18.70
2014,06,23,09,40,18.80
2014,06,23,09,41,18.80
2014,06,23,09,42,18.80
2014,06,23,09,43,18.80
2014,06,23,09,44,18.80
2014,06,23,09,45,18.80
2014,06,23,09,46,18.80
2014,06,23,09,47,18.80
2014,06,23,09,48,18.80
2014,06,23,09,49,18.80
2014,06,23,09,50,18.80
2014,06,23,09,51,18.80
2014,06,23,09,52,18.80
2014,06,23,09,53,18.70
2014,06,23,09,54,18.70
2014,06,23,09,55,18.70
2014,06,23,09,56,18.70
2014,06,23,09,57,18.80
2014,06,23,09,58,18.80
2014,06,23,09,59,18.80
2014,06,23,10,00,18.80
2014,06,23,10,01,18.90
2014,06,23,10,02,18.90
2014,06,23,10,03,18.90
2014,06,23,10,04,18.90
2014,06,23,10,05,18.90
2014,06,23,10,06,18.90
2014,06,23,10,07,18.90
2014,06,23,10,08,18.90
2014,06,23,10,09,18.90
2014,06,23,10,10,18.90
2014,06,23,10,11,19.00
2014,06,23,10,12,19.00
2014,06,23,10,13,19.10
2014,06,23,10,14,19.10
2014,06,23,10,15,19.20
2014,06,23,10,16,19.20
2014,06,23,10,17,19.30
2014,06,23,10,18,19.30
2014,06,23,10,19,19.40
2014,06,23,10,20,19.40
2014,06,23,10,21,19.50
2014,06,23,10,22,19.50
2014,06,23,10,23,19.50
2014,06,23,10,24,19.50
2014,06,23,10,25,19.50
2014,06,23,10,26,19.50
2014,06,23,10,27,19.60
2014,06,23,10,28,19.60
2014,06,23,10,29,19.70
2014,06,23,10,30,19.70
2014,06,23,10,31,19.70
2014,06,23,10,32,19.70
2014,06,23,10,33,19.70
2014,06,23,10,34,19.70
2014,06,23,10,35,19.80
2014,06,23,10,36,19.80
2014,06,23,10,37,19.80
2014,06,23,10,38,19.90
2014,06,23,10,39,19.90
2014,06,23,10,40,20.00
2014,06,23,10,41,20.00
2014,06,23,10,42,20.00
2014,06,23,10,43,20.10
2014,06,23,10,44,20.20
2014,06,23,10,45,20.30
2014,06,23,10,46,20.30
2014,06,23,10,47,20.40
2014,06,23,10,48,20.40
2014,06,23,10,49,20.50
2014,06,23,10,50,20.50
2014,06,23,10,51,20.40
2014,06,23,10,52,20.50
2014,06,23,10,53,20.50
2014,06,23,10,54,20.60
2014,06,23,10,55,20.70
2014,06,23,10,56,20.80
2014,06,23,10,57,20.80
2014,06,23,10,58,20.80
2014,06,23,10,59,20.90
2014,06,23,11,00,20.90
2014,06,23,11,01,20.90
2014,06,23,11,02,20.90
2014,06,23,11,03,20.90
2014,06,23,11,04,20.90
2014,06,23,11,05,21.00
2014,06,23,11,06,21.00
2014,06,23,11,07,21.10
2014,06,23,11,08,21.10
2014,06,23,11,09,21.20
2014,06,23,11,10,21.30
2014,06,23,11,11,21.30
2014,06,23,11,12,21.40
2014,06,23,11,13,21.50
2014,06,23,11,14,21.50
2014,06,23,11,15,21.50
2014,06,23,11,16,21.40
2014,06,23,11,17,21.40
2014,06,23,11,18,21.50
2014,06,23,11,19,21.60
2014,06,23,11,20,21.60
2014,06,23,11,21,21.60
2014,06,23,11,22,21.50
2014,06,23,11,23,21.50
2014,06,23,11,24,21.50
2014,06,23,11,25,21.50
2014,06,23,11,26,21.40
2014,06,23,11,27,21.40
2014,06,23,11,28,21.30
2014,06,23,11,29,21.40
2014,06,23,11,30,21.40
2014,06,23,11,31,21.40
2014,06,23,11,32,21.50
2014,06,23,11,33,21.60
2014,06,23,11,34,21.60
2014,06,23,11,35,21.70
2014,06,23,11,36,21.70
2014,06,23,11,37,21.60
2014,06,23,11,38,21.60
2014,06,23,11,39,21.60
2014,06,23,11,40,21.50
2014,06,23,11,41,21.50
2014,06,23,11,42,21.50
2014,06,23,11,43,21.40
2014,06,23,11,44,21.40
2014,06,23,11,45,21.30
2014,06,23,11,46,21.30
2014,06,23,11,47,21.20
2014,06,23,11,48,21.20
2014,06,23,11,49,21.20
2014,06,23,11,50,21.20
2014,06,23,11,51,21.20
2014,06,23,11,52,21.30
2014,06,23,11,53,21.40
2014,06,23,11,54,21.40
2014,06,23,11,55,21.40
2014,06,23,11,56,21.40
2014,06,23,11,57,21.40
2014,06,23,11,58,21.30
2014,06,23,11,59,21.30
2014,06,23,12,00,21.30
2014,06,23,12,01,21.30
2014,06,23,12,02,21.20
2014,06,23,12,03,21.20
2014,06,23,12,04,21.20
2014,06,23,12,05,21.20
2014,06,23,12,06,21.20
2014,06,23,12,07,21.20
2014,06,23,12,08,21.20
2014,06,23,12,09,21.30
2014,06,23,12,10,21.30
2014,06,23,12,11,21.30
2014,06,23,12,12,21.30
2014,06,23,12,13,21.40
2014,06,23,12,14,21.40
2014,06,23,12,15,21.40
2014,06,23,12,16,21.40
2014,06,23,12,17,21.50
2014,06,23,12,18,21.50
2014,06,23,12,19,21.70
2014,06,23,12,20,21.70
2014,06,23,12,21,21.70
2014,06,23,12,22,21.70
2014,06,23,12,23,21.60
2014,06,23,12,24,21.60
2014,06,23,12,25,21.60
2014,06,23,12,26,21.50
2014,06,23,12,27,21.40
2014,06,23,12,28,21.30
2014,06,23,12,29,21.30
2014,06,23,12,30,21.30
2014,06,23,12,31,21.30
2014,06,23,12,32,21.30
2014,06,23,12,33,21.30
2014,06,23,12,34,21.40
2014,06,23,12,35,21.50
2014,06,23,12,36,21.50
2014,06,23,12,37,21.50
2014,06,23,12,38,21.40
2014,06,23,12,39,21.30
2014,06,23,12,40,21.10
2014,06,23,12,41,21.00
2014,06,23,12,42,21.00
2014,06,23,12,43,20.90
2014,06,23,12,44,20.80
2014,06,23,12,45,20.70
2014,06,23,12,46,20.70
2014,06,23,12,47,20.70
2014,06,23,12,48,20.70
2014,06,23,12,49,20.70
2014,06,23,12,50,20.70
2014,06,23,12,51,20.70
2014,06,23,12,52,20.70
2014,06,23,12,53,20.70
2014,06,23,12,54,20.70
2014,06,23,12,55,20.70
2014,06,23,12,56,20.60
2014,06,23,12,57,20.50
2014,06,23,12,58,20.50
2014,06,23,12,59,20.40
2014,06,23,13,00,20.40
2014,06,23,13,01,20.30
2014,06,23,13,02,20.20
2014,06,23,13,03,20.10
2014,06,23,13,04,20.00
2014,06,23,13,05,19.90
2014,06,23,13,06,19.80
2014,06,23,13,07,19.70
2014,06,23,13,08,19.60
2014,06,23,13,09,19.50
2014,06,23,13,10,19.40
2014,06,23,13,11,19.40
2014,06,23,13,12,19.40
2014,06,23,13,13,19.40
2014,06,23,13,14,19.40
2014,06,23,13,15,19.40
2014,06,23,13,16,19.40
2014,06,23,13,17,19.30
2014,06,23,13,18,19.30
2014,06,23,13,19,19.30
2014,06,23,13,20,19.40
2014,06,23,13,21,19.40
2014,06,23,13,22,19.50
2014,06,23,13,23,19.50
2014,06,23,13,24,19.60
2014,06,23,13,25,19.60
2014,06,23,13,26,19.70
2014,06,23,13,27,19.70
2014,06,23,13,28,19.70
2014,06,23,13,29,19.60
2014,06,23,13,30,19.60
2014,06,23,13,31,19.60
2014,06,23,13,32,19.60
2014,06,23,13,33,19.60
2014,06,23,13,34,19.60
2014,06,23,13,35,19.60
2014,06,23,13,36,19.60
2014,06,23,13,37,19.60
2014,06,23,13,38,19.60
2014,06,23,13,39,19.60
2014,06,23,13,40,19.70
2014,06,23,13,41,19.70
2014,06,23,13,42,19.80
2014,06,23,13,43,19.80
2014,06,23,13,44,19.80
2014,06,23,13,45,19.80
2014,06,23,13,46,19.90
2014,06,23,13,47,19.90
2014,06,23,13,48,19.90
2014,06,23,13,49,19.90
2014,06,23,13,50,20.00
2014,06,23,13,51,20.10
2014,06,23,13,52,20.10
2014,06,23,13,53,20.10
2014,06,23,13,54,20.10
2014,06,23,13,55,20.10
2014,06,23,13,56,20.10
2014,06,23,13,57,20.10
2014,06,23,13,58,20.00
2014,06,23,13,59,20.00
2014,06,23,14,00,19.90
2014,06,23,14,01,19.90
2014,06,23,14,02,19.80
2014,06,23,14,03,19.70
2014,06,23,14,04,19.70
2014,06,23,14,05,19.80
2014,06,23,14,06,19.80
2014,06,23,14,07,19.80
2014,06,23,14,08,19.80
2014,06,23,14,09,19.70
2014,06,23,14,10,19.70
2014,06,23,14,11,19.70
2014,06,23,14,12,19.70
2014,06,23,14,13,19.70
2014,06,23,14,14,19.70
2014,06,23,14,15,19.70
2014,06,23,14,16,19.60
2014,06,23,14,17,19.50
2014,06,23,14,18,19.50
2014,06,23,14,19,19.50
2014,06,23,14,20,19.50
2014,06,23,14,21,19.50
2014,06,23,14,22,19.40
2014,06,23,14,23,19.40
2014,06,23,14,24,19.40
2014,06,23,14,25,19.30
2014,06,23,14,26,19.30
2014,06,23,14,27,19.30
2014,06,23,14,28,19.30
2014,06,23,14,29,19.30
2014,06,23,14,30,19.30
2014,06,23,14,31,19.30
2014,06,23,14,32,19.40
2014,06,23,14,33,19.40
2014,06,23,14,34,19.50
2014,06,23,14,35,19.50
2014,06,23,14,36,19.60
2014,06,23,14,37,19.70
2014,06,23,14,38,19.70
2014,06,23,14,39,19.70
2014,06,23,14,40,19.80
2014,06,23,14,41,19.80
2014,06,23,14,42,19.80
2014,06,23,14,43,19.80
2014,06,23,14,44,19.80
2014,06,23,14,45,19.90
2014,06,23,14,46,19.90
2014,06,23,14,47,19.90
2014,06,23,14,48,19.90
2014,06,23,14,49,20.00
2014,06,23,14,50,20.00
2014,06,23,14,51,20.00
2014,06,23,14,52,20.00
2014,06,23,14,53,20.00
2014,06,23,14,54,20.00
2014,06,23,14,55,19.90
2014,06,23,14,56,19.90
2014,06,23,14,57,19.90
2014,06,23,14,58,19.90
2014,06,23,14,59,19.90
2014,06,23,15,00,19.90
2014,06,23,15,01,19.90
2014,06,23,15,02,19.90
2014,06,23,15,03,19.90
2014,06,23,15,04,19.90
2014,06,23,15,05,19.90
2014,06,23,15,06,20.00
2014,06,23,15,07,19.90
2014,06,23,15,08,20.00
2014,06,23,15,09,19.90
2014,06,23,15,10,19.90
2014,06,23,15,11,19.90
2014,06,23,15,12,19.90
2014,06,23,15,13,19.90
2014,06,23,15,14,19.90
2014,06,23,15,15,20.00
2014,06,23,15,16,20.00
2014,06,23,15,17,20.00
2014,06,23,15,18,20.00
2014,06,23,15,19,20.00
2014,06,23,15,20,20.00
2014,06,23,15,21,20.00
2014,06,23,15,22,20.00
2014,06,23,15,23,19.90
2014,06,23,15,24,19.90
2014,06,23,15,25,19.80
2014,06,23,15,26,19.80
2014,06,23,15,27,19.80
2014,06,23,15,28,19.80
2014,06,23,15,29,19.80
2014,06,23,15,30,19.80
2014,06,23,15,31,19.80
2014,06,23,15,32,19.80
2014,06,23,15,33,19.80
2014,06,23,15,34,19.80
2014,06,23,15,35,19.80
2014,06,23,15,36,19.80
2014,06,23,15,37,19.80
2014,06,23,15,38,19.70
2014,06,23,15,39,19.70
2014,06,23,15,40,19.70
2014,06,23,15,41,19.70
2014,06,23,15,42,19.70
2014,06,23,15,43,19.60
2014,06,23,15,44,19.60
2014,06,23,15,45,19.70
2014,06,23,15,46,19.70
2014,06,23,15,47,19.70
2014,06,23,15,48,19.70
2014,06,23,15,49,19.70
2014,06,23,15,50,19.70
2014,06,23,15,51,19.70
2014,06,23,15,52,19.80
2014,06,23,15,53,19.80
2014,06,23,15,54,19.80
2014,06,23,15,55,19.90
2014,06,23,15,56,19.90
2014,06,23,15,57,19.90
2014,06,23,15,58,19.90
2014,06,23,15,59,20.00
2014,06,23,16,00,20.00
2014,06,23,16,01,20.00
2014,06,23,16,02,20.10
2014,06,23,16,03,20.10
2014,06,23,16,04,20.10
2014,06,23,16,05,20.10
2014,06,23,16,06,20.10
2014,06,23,16,07,20.10
2014,06,23,16,08,20.10
2014,06,23,16,09,20.10
2014,06,23,16,10,20.10
2014,06,23,16,11,20.10
2014,06,23,16,12,20.10
2014,06,23,16,13,20.00
2014,06,23,16,14,20.00
2014,06,23,16,15,20.00
2014,06,23,16,16,20.00
2014,06,23,16,17,20.10
2014,06,23,16,18,20.10
2014,06,23,16,19,20.10
2014,06,23,16,20,20.10
2014,06,23,16,21,20.10
2014,06,23,16,22,20.10
2014,06,23,16,23,20.10
2014,06,23,16,24,20.10
2014,06,23,16,25,20.20
2014,06,23,16,26,20.20
2014,06,23,16,27,20.20
2014,06,23,16,28,20.20
2014,06,23,16,29,20.30
2014,06,23,16,30,20.30
2014,06,23,16,31,20.30
2014,06,23,16,32,20.30
2014,06,23,16,33,20.30
2014,06,23,16,34,20.40
2014,06,23,16,35,20.40
2014,06,23,16,36,20.40
2014,06,23,16,37,20.40
2014,06,23,16,38,20.40
2014,06,23,16,39,20.40
2014,06,23,16,40,20.40
2014,06,23,16,41,20.40
2014,06,23,16,42,20.40
2014,06,23,16,43,20.40
2014,06,23,16,44,20.40
2014,06,23,16,45,20.50
2014,06,23,16,46,20.50
2014,06,23,16,47,20.50
2014,06,23,16,48,20.40
2014,06,23,16,49,20.40
2014,06,23,16,50,20.40
2014,06,23,16,51,20.40
2014,06,23,16,52,20.30
2014,06,23,16,53,20.30
2014,06,23,16,54,20.30
2014,06,23,16,55,20.30
2014,06,23,16,56,20.20
2014,06,23,16,57,20.20
2014,06,23,16,58,20.20
2014,06,23,16,59,20.20
2014,06,23,17,00,20.10
2014,06,23,17,01,20.10
2014,06,23,17,02,20.10
2014,06,23,17,03,20.10
2014,06,23,17,04,20.10
2014,06,23,17,05,20.00
2014,06,23,17,06,20.00
2014,06,23,17,07,20.00
2014,06,23,17,08,20.00
2014,06,23,17,09,20.00
2014,06,23,17,10,20.00
2014,06,23,17,11,20.00
2014,06,23,17,12,19.90
2014,06,23,17,13,19.90
2014,06,23,17,14,19.90
2014,06,23,17,15,19.90
2014,06,23,17,16,19.90
2014,06,23,17,17,19.90
2014,06,23,17,18,19.90
2014,06,23,17,19,19.90